Regional Weather Roundup
Issued by NWS

Home | Current Version | Previous Version | Graphics & Text | Print | Product List | Glossary On
Versions: 1 2 3 4 5 6 7 8 9 10 11 12 13 14 15 16 17 18 19 20 21 22 23 24 25 26 27 28 29 30 31 32 33 34 35 36 37 38 39 40 41 42 43 44 45 46 47 48 49 50
042
ASUS44 KLIX 230410
RWRLA
LOUISIANA WEATHER ROUNDUP
NATIONAL WEATHER SERVICE NEW ORLEANS LA
1100 PM CDT FRI AUG 22 2014

NOTE: "FAIR" INDICATES FEW OR NO CLOUDS BELOW 12,000 FEET WITH NO
      SIGNIFICANT WEATHER AND/OR OBSTRUCTIONS TO VISIBILITY.
      SKY/WX - SKY CONDITION AND SIGNIFICANT WEATHER.
      TMP - AIR TEMPERATURE.    DP   - DEWPOINT TEMPERATURE.
      RH  - RELATIVE HUMIDITY.  PRES - PRESSURE.
      HX  - HEAT INDEX.         WCI  - WIND CHILL INDEX.

*  THESE STATIONS ARE NOT NWS OR FAA STATIONS AND ARE NOT UNDER
   NWS QUALITY CONTROL.

LAZ040-048-061>063-065-066-069-230500-
SOUTHEAST LOUISIANA

CITY           SKY/WX    TMP DP  RH WIND       PRES   REMARKS
N.O. AUDUBON   NOT AVBL
N.O. INTL ARPT CLEAR     83  72  69 SW7       30.03S
N.O. LAKEFRONT CLEAR     87  72  60 SW7       30.03S
N.O. DOWNTOWN* FAIR      88  70  55 SW3       30.04S
SLIDELL        CLEAR     80  75  84 CALM      30.02S
BATON ROUGE    CLEAR     80  76  87 CALM      30.03S
BOOTHVILLE     CLEAR     84  76  76 S6        30.04S
BELLE CHASSE   PTCLDY    81  74  79 SW3       30.03S
BOGALUSA*      FAIR      81  75  83 CALM      30.04S
GALLIANO*      NOT AVBL
NEW ROADS*     FAIR      78  76  95 CALM      30.03S
GONZALES*      FAIR      79  79 100 CALM      30.03S
HAMMOND*       CLEAR     81  75  83 CALM      30.05S
HOUMA*         CLEAR     81  75  82 CALM      30.04S
PORT FOURCHON* CLEAR     86  75  70 SW5       30.05F HX  95

$$

LAZ041-044-053-054-230500-
SOUTHWEST LOUISIANA

CITY           SKY/WX    TMP DP  RH WIND       PRES   REMARKS
LAKE CHARLES   CLEAR     80  77  90 CALM      30.03S
LAFAYETTE      CLEAR     82  76  81 CALM      30.04S
PATTERSON      CLEAR     81  79  94 CALM      30.07S
SALT POINT       N/A     89  77  67 VRB5      30.03F HX 101
NEW IBERIA     CLEAR     81  77  88 CALM      30.04S
CHENAULT AIRPK CLEAR     83  74  74 S5        30.04F

$$

LAZ027-028-230500-
CENTRAL LOUISIANA

CITY           SKY/WX    TMP DP  RH WIND       PRES   REMARKS
FORT POLK      CLEAR     81  74  79 S6        30.03F
ALEXANDRIA INT CLEAR     79  75  87 SE3       30.01S
ALEXANDRIA     PTCLDY    77  74  90 CALM      30.03S FOG

$$

LAZ001-002-230500-
NORTHWEST LOUISIANA

CITY           SKY/WX    TMP DP  RH WIND       PRES   REMARKS
SHREVEPORT     CLEAR     82  72  71 S7        29.99F
BARKSDALE AFB  CLEAR     76  71  83 SE8       30.00F
DTN SHREVEPORT CLEAR     85  70  60 S7        29.99F

$$

LAZ014-016-230500-
NORTHEAST LOUISIANA

CITY           SKY/WX    TMP DP  RH WIND       PRES   REMARKS
MONROE         CLEAR     78  73  84 CALM      30.02F
TALLULAH       CLEAR     75  72  90 CALM      30.02S

$$




USA.gov is the U.S. government's official web portal to all federal, state and local government web resources and services.